Location: Bennemühlen
(52.5740°N, 9.7135°E)
Time: 21:19:20
(UTC+00:00)

Tiros 1 despin weight - Pass Details

Date: 21 February 2026
Orbit: 556 x 593 km, 48.2° (Epoch: 5 March)

Event Time Altitude Azimuth Distance (km) Brightness Sun altitude
Rises 17:15:12 0° 272° (W) 2,738 ? -5.3°
Reaches altitude 10° 17:17:35 10° 263° (W) 1,840 ? -5.6°
Maximum altitude 17:21:23 34° 198° (SSW) 925 ? -6.2°
Drops below altitude 10° 17:25:11 10° 133° (SE) 1,837 ? -6.8°
Enters shadow 17:27:18 - 125° (SE) 2,625 ? -7.1°
Sets 17:27:34 0° 124° (SE) 2,733 - -7.1°
